Live-Position
3D-Globus wird geladen...
Über Starlink 5871
Group: 3 satellites
Beschreibung wird geladen...
Nächste Überflüge
Passes for default location (London). Set your location on the main map for personalized predictions.
Höhenverlauf
Loading altitude history...
No altitude history available
Zweizeiliger Elementsatz
1 55919U 23037F 26122.14933956 -.00000068 00000-0 21393-5 0 9995
2 55919 69.9997 169.7170 0003517 269.4304 90.6452 14.98331696171493
Epoch: 2. Mai 2026 •
Age: 4 hours
Aktueller Status
Höhe 574.4 km
Geschwindigkeit 7.57 km/s
Subsatellitenpunkt 0.96°N,
14.94°E
Startdatum 17. März 2023
Alter 3.1 years
Typ internet
Startgruppe
Falcon 9 •
Group 2-8 •
49 satellites
Starlink 5856
55914
Starlink 5859 55915
Starlink 5796 55916
Starlink 5867 55918
Starlink 5862 55920
Starlink 5861 55921
Starlink 5863 55922
Starlink 5854 55923
Starlink 5849 55924
Starlink 5922 55925
Starlink 5921 55926
Starlink 5919 55927
Starlink 5930 55928
Starlink 5896 55930
Starlink 5897 55931
Starlink 5848 55932
Starlink 5852 55933
Starlink 5927 55934
Starlink 5920 55935
Starlink 5882 55936
...and 28 more
Technische Details
Klassifizierung Payload
Masse 305.00 kg
Trockenmasse 290.00 kg
Gesamtmasse 305.00 kg
Länge 0.20 m
Durchmesser 2.80 m
Spannweite 9.00 m
Form Box + pan
Hersteller SPXS
Bus-Typ Starlink
Phasenstatus In Orbit
Besitzer/Staat SPXS/US
Most Searched
Loading...